Time,TemperatureF,DewpointF,PressureIn,WindDirection,WindDirectionDegrees,WindSpeedMPH,WindSpeedGustMPH,Humidity,HourlyPrecipIn,Conditions,Clouds,dailyrainin,SoftwareType,DateUTC
2013-01-09 00:00:00,38.5,36.1,29.38,SSW,213,0.0,0.0,91,0.00,,,0.00,VWS V13.01,2013-01-09 06:00:00,
2013-01-09 00:01:00,38.3,35.9,29.38,SSW,213,0.0,0.0,91,0.00,,,0.00,VWS V13.01,2013-01-09 06:01:00,
2013-01-09 00:02:00,38.3,35.9,29.38,SSW,213,0.0,0.0,91,0.00,,,0.00,VWS V13.01,2013-01-09 06:02:00,
2013-01-09 00:03:00,38.1,35.7,29.38,SSW,213,0.0,0.0,91,0.00,,,0.00,VWS V13.01,2013-01-09 06:03:00,
2013-01-09 00:04:00,38.1,35.7,29.38,SSW,213,0.0,0.0,91,0.00,,,0.00,VWS V13.01,2013-01-09 06:04:00,
2013-01-09 00:05:00,38.3,35.9,29.38,SSW,213,0.0,0.0,91,0.00,,,0.00,VWS V13.01,2013-01-09 06:05:00,
2013-01-09 00:06:00,38.3,35.9,29.38,SSW,213,0.0,0.0,91,0.00,,,0.00,VWS V13.01,2013-01-09 06:06:00,
2013-01-09 00:07:00,38.3,35.9,29.38,SSW,213,0.0,0.0,91,0.00,,,0.00,VWS V13.01,2013-01-09 06:07:00,
2013-01-09 00:08:00,38.5,36.1,29.38,SSW,213,0.0,0.0,91,0.00,,,0.00,VWS V13.01,2013-01-09 06:08:00,
2013-01-09 00:09:00,38.5,36.1,29.38,SSW,213,0.0,0.0,91,0.00,,,0.00,VWS V13.01,2013-01-09 06:09:00,
2013-01-09 00:10:00,38.5,36.1,29.38,SSW,213,0.0,0.0,91,0.00,,,0.00,VWS V13.01,2013-01-09 06:10:00,
2013-01-09 00:11:00,38.5,36.1,29.38,SSW,213,0.0,0.0,91,0.00,,,0.00,VWS V13.01,2013-01-09 06:11:00,
2013-01-09 00:12:00,38.5,36.1,29.38,SSW,213,0.0,0.0,91,0.00,,,0.00,VWS V13.01,2013-01-09 06:12:00,
2013-01-09 00:13:00,38.5,36.1,29.38,SSW,213,0.0,0.0,91,0.00,,,0.00,VWS V13.01,2013-01-09 06:13:00,
2013-01-09 00:14:00,38.5,36.1,29.38,SSW,213,0.0,0.0,91,0.00,,,0.00,VWS V13.01,2013-01-09 06:14:00,
2013-01-09 00:15:00,38.5,36.1,29.38,SSW,213,0.0,0.0,91,0.00,,,0.00,VWS V13.01,2013-01-09 06:15:00,
2013-01-09 00:16:00,38.5,36.1,29.38,SSW,213,0.0,0.0,91,0.00,,,0.00,VWS V13.01,2013-01-09 06:16:00,
2013-01-09 00:17:00,38.8,36.4,29.38,SSW,213,0.0,0.0,91,0.00,,,0.00,VWS V13.01,2013-01-09 06:17:00,
2013-01-09 00:18:00,39.2,35.1,29.38,SSW,213,0.0,0.0,85,0.00,,,0.00,VWS V13.01,2013-01-09 06:18:00,
2013-01-09 00:19:00,39.2,35.1,29.38,SSW,213,0.0,0.0,85,0.00,,,0.00,VWS V13.01,2013-01-09 06:19:00,
2013-01-09 00:20:00,39.2,35.1,29.38,SSW,213,0.0,0.0,85,0.00,,,0.00,VWS V13.01,2013-01-09 06:20:00,
2013-01-09 00:21:00,39.2,35.1,29.38,SSW,213,0.0,0.0,85,0.00,,,0.00,VWS V13.01,2013-01-09 06:21:00,
2013-01-09 00:22:00,39.2,35.1,29.38,SSW,213,0.0,0.0,85,0.00,,,0.00,VWS V13.01,2013-01-09 06:22:00,
2013-01-09 00:23:00,39.0,36.6,29.38,SSW,213,0.0,0.0,91,0.00,,,0.00,VWS V13.01,2013-01-09 06:23:00,
2013-01-09 00:24:00,39.0,36.6,29.38,SSW,213,0.0,0.0,91,0.00,,,0.00,VWS V13.01,2013-01-09 06:24:00,
2013-01-09 00:25:00,38.8,36.4,29.38,SSW,213,0.0,0.0,91,0.00,,,0.00,VWS V13.01,2013-01-09 06:25:00,
2013-01-09 00:26:00,38.8,36.4,29.38,SSW,213,0.0,0.0,91,0.00,,,0.00,VWS V13.01,2013-01-09 06:26:00,
2013-01-09 00:27:00,38.7,36.3,29.38,SSW,213,0.0,0.0,91,0.00,,,0.00,VWS V13.01,2013-01-09 06:27:00,
2013-01-09 00:28:00,38.7,36.3,29.38,SSW,213,0.0,0.0,91,0.00,,,0.00,VWS V13.01,2013-01-09 06:28:00,
2013-01-09 00:29:00,38.5,36.1,29.38,SSW,213,0.0,0.0,91,0.00,,,0.00,VWS V13.01,2013-01-09 06:29:00,
2013-01-09 00:30:00,38.5,36.1,29.38,SSW,213,0.0,0.0,91,0.00,,,0.00,VWS V13.01,2013-01-09 06:30:00,
2013-01-09 00:31:00,38.5,36.1,29.38,SSW,213,0.0,0.0,91,0.00,,,0.00,VWS V13.01,2013-01-09 06:31:00,
2013-01-09 00:32:00,38.5,36.1,29.38,SSW,213,0.0,0.0,91,0.00,,,0.00,VWS V13.01,2013-01-09 06:32:00,
2013-01-09 00:33:00,38.5,36.1,29.38,SSW,213,0.0,0.0,91,0.00,,,0.00,VWS V13.01,2013-01-09 06:33:00,
2013-01-09 00:34:00,38.5,36.1,29.38,SSW,213,0.0,0.0,91,0.00,,,0.00,VWS V13.01,2013-01-09 06:34:00,
2013-01-09 00:35:00,38.5,36.1,29.38,SSW,213,0.0,0.0,91,0.00,,,0.00,VWS V13.01,2013-01-09 06:35:00,
2013-01-09 00:36:00,38.5,36.1,29.38,SSW,213,0.0,0.0,91,0.00,,,0.00,VWS V13.01,2013-01-09 06:36:00,
2013-01-09 00:37:00,38.5,36.1,29.38,SSW,213,0.0,0.0,91,0.00,,,0.00,VWS V13.01,2013-01-09 06:37:00,
2013-01-09 00:38:00,38.7,36.3,29.38,SSW,212,0.0,0.0,91,0.00,,,0.00,VWS V13.01,2013-01-09 06:38:00,
2013-01-09 00:39:00,38.8,36.4,29.38,SSW,206,5.4,5.4,91,0.00,,,0.00,VWS V13.01,2013-01-09 06:39:00,
2013-01-09 00:40:00,39.7,35.6,29.38,SSW,193,3.6,3.6,85,0.00,,,0.00,VWS V13.01,2013-01-09 06:40:00,
2013-01-09 00:41:00,39.9,35.8,29.38,South,191,4.0,4.0,85,0.00,,,0.00,VWS V13.01,2013-01-09 06:41:00,
2013-01-09 00:42:00,39.9,35.8,29.38,South,191,6.3,6.3,85,0.00,,,0.00,VWS V13.01,2013-01-09 06:42:00,
2013-01-09 00:43:00,40.1,36.0,29.41,SSW,196,4.0,4.0,85,0.00,,,0.00,VWS V13.01,2013-01-09 06:43:00,
2013-01-09 00:44:00,40.3,36.1,29.41,South,188,5.4,5.4,85,0.00,,,0.00,VWS V13.01,2013-01-09 06:44:00,
2013-01-09 00:45:00,40.3,36.1,29.41,SSW,193,5.8,5.8,85,0.00,,,0.00,VWS V13.01,2013-01-09 06:45:00,
2013-01-09 00:46:00,40.3,36.1,29.41,South,190,4.0,4.0,85,0.00,,,0.00,VWS V13.01,2013-01-09 06:46:00,
2013-01-09 00:47:00,40.1,36.0,29.41,South,191,3.1,3.1,85,0.00,,,0.00,VWS V13.01,2013-01-09 06:47:00,
2013-01-09 00:48:00,39.7,35.6,29.41,SSW,192,3.6,3.6,85,0.00,,,0.00,VWS V13.01,2013-01-09 06:48:00,
2013-01-09 00:49:00,39.6,35.4,29.41,SSW,194,4.0,4.0,85,0.00,,,0.00,VWS V13.01,2013-01-09 06:49:00,
2013-01-09 00:50:00,39.6,35.4,29.41,SSW,194,3.6,3.6,85,0.00,,,0.00,VWS V13.01,2013-01-09 06:50:00,
2013-01-09 00:51:00,39.6,35.4,29.41,SSW,193,4.9,4.9,85,0.00,,,0.00,VWS V13.01,2013-01-09 06:51:00,
2013-01-09 00:52:00,39.7,35.6,29.41,SSW,192,4.9,4.9,85,0.00,,,0.00,VWS V13.01,2013-01-09 06:52:00,
2013-01-09 00:53:00,39.4,35.3,29.41,South,191,5.4,5.4,85,0.00,,,0.00,VWS V13.01,2013-01-09 06:53:00,
2013-01-09 00:54:00,39.4,35.2,29.41,South,191,4.5,4.5,85,0.00,,,0.00,VWS V13.01,2013-01-09 06:54:00,
2013-01-09 00:55:00,39.0,36.6,29.41,South,191,4.0,4.0,91,0.00,,,0.00,VWS V13.01,2013-01-09 06:55:00,
2013-01-09 00:56:00,39.0,36.6,29.41,South,191,5.4,5.4,91,0.00,,,0.00,VWS V13.01,2013-01-09 06:56:00,
2013-01-09 00:57:00,39.2,35.1,29.41,SSW,192,5.4,5.4,85,0.00,,,0.00,VWS V13.01,2013-01-09 06:57:00,
2013-01-09 00:58:00,38.8,36.4,29.38,South,191,4.9,4.9,91,0.00,,,0.00,VWS V13.01,2013-01-09 06:58:00,
2013-01-09 00:59:00,39.2,35.1,29.38,South,189,5.8,5.8,85,0.00,,,0.00,VWS V13.01,2013-01-09 06:59:00,
2013-01-09 01:00:00,39.4,35.3,29.38,SSW,194,6.3,6.3,85,0.00,,,0.00,VWS V13.01,2013-01-09 07:00:00,
2013-01-09 01:01:00,39.4,35.2,29.38,South,187,5.8,5.8,85,0.00,,,0.00,VWS V13.01,2013-01-09 07:01:00,
2013-01-09 01:02:00,39.4,35.3,29.38,SSW,192,5.8,5.8,85,0.00,,,0.00,VWS V13.01,2013-01-09 07:02:00,
2013-01-09 01:03:00,39.2,35.1,29.38,South,190,4.0,4.0,85,0.00,,,0.00,VWS V13.01,2013-01-09 07:03:00,
2013-01-09 01:04:00,39.2,35.1,29.38,South,189,5.8,5.8,85,0.00,,,0.00,VWS V13.01,2013-01-09 07:04:00,
2013-01-09 01:05:00,39.2,35.1,29.38,South,185,5.8,5.8,85,0.00,,,0.00,VWS V13.01,2013-01-09 07:05:00,
2013-01-09 01:06:00,39.2,35.1,29.38,South,191,5.4,5.4,85,0.00,,,0.00,VWS V13.01,2013-01-09 07:06:00,
2013-01-09 01:07:00,38.8,36.4,29.38,SSW,192,3.1,3.1,91,0.00,,,0.00,VWS V13.01,2013-01-09 07:07:00,
2013-01-09 01:08:00,38.8,36.4,29.38,South,191,5.4,5.4,91,0.00,,,0.00,VWS V13.01,2013-01-09 07:08:00,
2013-01-09 01:09:00,38.8,36.4,29.38,South,191,5.4,5.4,91,0.00,,,0.00,VWS V13.01,2013-01-09 07:09:00,
2013-01-09 01:10:00,38.7,36.3,29.38,South,191,4.0,4.0,91,0.00,,,0.00,VWS V13.01,2013-01-09 07:10:00,
2013-01-09 01:11:00,38.7,36.3,29.38,SSW,197,3.6,3.6,91,0.00,,,0.00,VWS V13.01,2013-01-09 07:11:00,
2013-01-09 01:12:00,38.5,36.1,29.41,SSW,197,3.1,3.1,91,0.00,,,0.00,VWS V13.01,2013-01-09 07:12:00,
2013-01-09 01:13:00,38.5,36.1,29.41,SSW,197,2.7,2.7,91,0.00,,,0.00,VWS V13.01,2013-01-09 07:13:00,
2013-01-09 01:14:00,38.5,36.1,29.41,SSW,197,3.1,3.1,91,0.00,,,0.00,VWS V13.01,2013-01-09 07:14:00,
2013-01-09 01:15:00,38.3,35.9,29.41,SSW,197,3.1,3.1,91,0.00,,,0.00,VWS V13.01,2013-01-09 07:15:00,
2013-01-09 01:16:00,38.1,35.7,29.41,SSW,197,3.1,3.1,91,0.00,,,0.00,VWS V13.01,2013-01-09 07:16:00,
2013-01-09 01:17:00,37.9,35.5,29.41,SSW,197,0.0,0.0,91,0.00,,,0.00,VWS V13.01,2013-01-09 07:17:00,
2013-01-09 01:18:00,37.9,35.5,29.41,SSW,197,0.0,0.0,91,0.00,,,0.00,VWS V13.01,2013-01-09 07:18:00,
2013-01-09 01:19:00,37.8,35.4,29.41,SSW,197,0.0,0.0,91,0.00,,,0.00,VWS V13.01,2013-01-09 07:19:00,
2013-01-09 01:20:00,37.4,35.0,29.41,SSW,197,0.0,0.0,91,0.00,,,0.00,VWS V13.01,2013-01-09 07:20:00,
2013-01-09 01:21:00,37.4,35.0,29.41,SSW,197,0.0,0.0,91,0.00,,,0.00,VWS V13.01,2013-01-09 07:21:00,
2013-01-09 01:22:00,37.4,35.0,29.41,SSW,197,0.0,0.0,91,0.00,,,0.00,VWS V13.01,2013-01-09 07:22:00,
2013-01-09 01:23:00,37.4,35.0,29.41,SSW,197,0.0,0.0,91,0.00,,,0.00,VWS V13.01,2013-01-09 07:23:00,
2013-01-09 01:24:00,37.0,34.7,29.41,SSW,197,0.0,0.0,91,0.00,,,0.00,VWS V13.01,2013-01-09 07:24:00,
2013-01-09 01:25:00,36.9,34.5,29.41,SSW,197,0.0,0.0,91,0.00,,,0.00,VWS V13.01,2013-01-09 07:25:00,
2013-01-09 01:26:00,36.5,34.1,29.41,SSW,197,0.0,0.0,91,0.00,,,0.00,VWS V13.01,2013-01-09 07:26:00,
2013-01-09 01:27:00,36.5,34.1,29.41,SSW,197,0.0,0.0,91,0.00,,,0.00,VWS V13.01,2013-01-09 07:27:00,
2013-01-09 01:28:00,36.3,34.0,29.41,SSW,197,0.0,0.0,91,0.00,,,0.00,VWS V13.01,2013-01-09 07:28:00,
2013-01-09 01:29:00,36.1,33.8,29.41,SSW,197,0.0,0.0,91,0.00,,,0.00,VWS V13.01,2013-01-09 07:29:00,
2013-01-09 01:30:00,36.0,33.6,29.41,SSW,197,0.0,0.0,91,0.00,,,0.00,VWS V13.01,2013-01-09 07:30:00,
2013-01-09 01:31:00,36.1,33.8,29.41,SSW,197,0.0,0.0,91,0.00,,,0.00,VWS V13.01,2013-01-09 07:31:00,
2013-01-09 01:32:00,36.1,33.8,29.41,SSW,197,0.0,0.0,91,0.00,,,0.00,VWS V13.01,2013-01-09 07:32:00,
2013-01-09 01:33:00,36.1,33.8,29.41,SSW,197,0.0,0.0,91,0.00,,,0.00,VWS V13.01,2013-01-09 07:33:00,
2013-01-09 01:34:00,35.8,33.4,29.41,SSW,197,0.0,0.0,91,0.00,,,0.00,VWS V13.01,2013-01-09 07:34:00,
2013-01-09 01:35:00,35.8,33.4,29.41,SSW,197,0.0,0.0,91,0.00,,,0.00,VWS V13.01,2013-01-09 07:35:00,
2013-01-09 01:36:00,35.6,33.2,29.41,SSW,197,0.0,0.0,91,0.00,,,0.00,VWS V13.01,2013-01-09 07:36:00,
2013-01-09 01:37:00,35.6,33.2,29.41,SSW,197,0.0,0.0,91,0.00,,,0.00,VWS V13.01,2013-01-09 07:37:00,
2013-01-09 01:38:00,35.6,33.2,29.41,SSW,197,0.0,0.0,91,0.00,,,0.00,VWS V13.01,2013-01-09 07:38:00,
2013-01-09 01:39:00,35.6,33.2,29.41,SSW,197,0.0,0.0,91,0.00,,,0.00,VWS V13.01,2013-01-09 07:39:00,
2013-01-09 01:40:00,35.4,34.7,29.41,SSW,197,0.0,0.0,97,0.00,,,0.00,VWS V13.01,2013-01-09 07:40:00,
2013-01-09 01:41:00,35.4,34.7,29.41,SSW,197,0.0,0.0,97,0.00,,,0.00,VWS V13.01,2013-01-09 07:41:00,
2013-01-09 01:42:00,35.2,34.5,29.41,SSW,197,0.0,0.0,97,0.00,,,0.00,VWS V13.01,2013-01-09 07:42:00,
2013-01-09 01:43:00,35.2,35.2,29.41,SSW,197,0.0,0.0,100,0.00,,,0.00,VWS V13.01,2013-01-09 07:43:00,
2013-01-09 01:44:00,35.1,35.1,29.41,SSW,197,0.0,0.0,100,0.00,,,0.00,VWS V13.01,2013-01-09 07:44:00,
2013-01-09 01:45:00,35.1,35.1,29.41,SSW,197,0.0,0.0,100,0.00,,,0.00,VWS V13.01,2013-01-09 07:45:00,
2013-01-09 01:46:00,35.1,35.1,29.41,SSW,197,0.0,0.0,100,0.00,,,0.00,VWS V13.01,2013-01-09 07:46:00,
2013-01-09 01:47:00,35.1,35.1,29.41,SSW,197,0.0,0.0,100,0.00,,,0.00,VWS V13.01,2013-01-09 07:47:00,
2013-01-09 01:48:00,35.2,35.2,29.41,SSW,197,0.0,0.0,100,0.00,,,0.00,VWS V13.01,2013-01-09 07:48:00,
2013-01-09 01:49:00,35.2,35.2,29.41,SSW,197,0.0,0.0,100,0.00,,,0.00,VWS V13.01,2013-01-09 07:49:00,
2013-01-09 01:50:00,35.4,35.4,29.41,SSW,197,0.0,0.0,100,0.00,,,0.00,VWS V13.01,2013-01-09 07:50:00,
2013-01-09 01:51:00,35.4,35.4,29.41,SSW,197,0.0,0.0,100,0.00,,,0.00,VWS V13.01,2013-01-09 07:51:00,
2013-01-09 01:52:00,35.4,35.4,29.41,SSW,197,0.0,0.0,100,0.00,,,0.00,VWS V13.01,2013-01-09 07:52:00,
2013-01-09 01:53:00,35.6,35.6,29.41,SSW,197,0.0,0.0,100,0.00,,,0.00,VWS V13.01,2013-01-09 07:53:00,
2013-01-09 01:54:00,35.6,35.6,29.41,SSW,197,0.0,0.0,100,0.00,,,0.00,VWS V13.01,2013-01-09 07:54:00,
2013-01-09 01:55:00,35.8,35.8,29.41,SSW,197,0.0,0.0,100,0.00,,,0.00,VWS V13.01,2013-01-09 07:55:00,
2013-01-09 01:56:00,35.8,35.8,29.41,SSW,197,0.0,0.0,100,0.00,,,0.00,VWS V13.01,2013-01-09 07:56:00,
2013-01-09 01:57:00,35.8,35.8,29.41,SSW,197,0.0,0.0,100,0.00,,,0.00,VWS V13.01,2013-01-09 07:57:00,
2013-01-09 01:58:00,35.8,35.8,29.41,SSW,197,0.0,0.0,100,0.00,,,0.00,VWS V13.01,2013-01-09 07:58:00,
2013-01-09 01:59:00,35.8,35.8,29.41,SSW,197,0.0,0.0,100,0.00,,,0.00,VWS V13.01,2013-01-09 07:59:00,
2013-01-09 02:00:00,35.8,35.8,29.41,SSW,197,0.0,0.0,100,0.00,,,0.00,VWS V13.01,2013-01-09 08:00:00,
2013-01-09 02:01:00,35.8,35.8,29.41,SSW,197,0.0,0.0,100,0.00,,,0.00,VWS V13.01,2013-01-09 08:01:00,
2013-01-09 02:02:00,36.0,36.0,29.41,SSW,197,0.0,0.0,100,0.00,,,0.00,VWS V13.01,2013-01-09 08:02:00,
2013-01-09 02:03:00,35.8,35.8,29.41,SSW,197,0.0,0.0,100,0.00,,,0.00,VWS V13.01,2013-01-09 08:03:00,
2013-01-09 02:04:00,35.8,35.8,29.41,SSW,197,0.0,0.0,100,0.00,,,0.00,VWS V13.01,2013-01-09 08:04:00,
2013-01-09 02:05:00,36.0,36.0,29.41,SSW,197,0.0,0.0,100,0.00,,,0.00,VWS V13.01,2013-01-09 08:05:00,
2013-01-09 02:06:00,36.0,36.0,29.41,SSW,197,0.0,0.0,100,0.00,,,0.00,VWS V13.01,2013-01-09 08:06:00,
2013-01-09 02:07:00,36.0,36.0,29.41,SSW,197,0.0,0.0,100,0.00,,,0.00,VWS V13.01,2013-01-09 08:07:00,
2013-01-09 02:08:00,36.0,36.0,29.41,SSW,197,0.0,0.0,100,0.00,,,0.00,VWS V13.01,2013-01-09 08:08:00,
2013-01-09 02:09:00,35.6,33.2,29.41,SSW,197,0.0,0.0,91,0.00,,,0.00,VWS V13.01,2013-01-09 08:09:00,
2013-01-09 02:10:00,35.6,33.2,29.41,SSW,197,0.0,0.0,91,0.00,,,0.00,VWS V13.01,2013-01-09 08:10:00,
2013-01-09 02:11:00,35.6,33.2,29.41,SSW,197,0.0,0.0,91,0.00,,,0.00,VWS V13.01,2013-01-09 08:11:00,
2013-01-09 02:12:00,35.6,33.2,29.41,SSW,197,0.0,0.0,91,0.00,,,0.00,VWS V13.01,2013-01-09 08:12:00,
2013-01-09 02:13:00,35.6,33.2,29.44,SSW,197,0.0,0.0,91,0.00,,,0.00,VWS V13.01,2013-01-09 08:13:00,
2013-01-09 02:14:00,35.6,33.2,29.44,SSW,197,0.0,0.0,91,0.00,,,0.00,VWS V13.01,2013-01-09 08:14:00,
2013-01-09 02:15:00,35.4,35.4,29.44,SSW,197,0.0,0.0,100,0.00,,,0.00,VWS V13.01,2013-01-09 08:15:00,
2013-01-09 02:16:00,35.4,35.4,29.44,SSW,197,0.0,0.0,100,0.00,,,0.00,VWS V13.01,2013-01-09 08:16:00,
2013-01-09 02:17:00,35.4,35.4,29.44,SSW,197,0.0,0.0,100,0.00,,,0.00,VWS V13.01,2013-01-09 08:17:00,
2013-01-09 02:18:00,35.6,35.6,29.44,SSW,197,0.0,0.0,100,0.00,,,0.00,VWS V13.01,2013-01-09 08:18:00,
2013-01-09 02:19:00,35.8,35.8,29.44,SSW,197,0.0,0.0,100,0.00,,,0.00,VWS V13.01,2013-01-09 08:19:00,
2013-01-09 02:20:00,35.8,35.8,29.44,SSW,197,0.0,0.0,100,0.00,,,0.00,VWS V13.01,2013-01-09 08:20:00,
2013-01-09 02:21:00,36.1,33.8,29.44,SSW,197,0.0,0.0,91,0.00,,,0.00,VWS V13.01,2013-01-09 08:21:00,
2013-01-09 02:22:00,36.1,33.8,29.44,SSW,197,0.0,0.0,91,0.00,,,0.00,VWS V13.01,2013-01-09 08:22:00,
2013-01-09 02:23:00,36.1,33.8,29.44,SSW,197,0.0,0.0,91,0.00,,,0.00,VWS V13.01,2013-01-09 08:23:00,
2013-01-09 02:24:00,36.0,33.6,29.44,SSW,197,0.0,0.0,91,0.00,,,0.00,VWS V13.01,2013-01-09 08:24:00,
2013-01-09 02:25:00,36.0,33.6,29.44,SSW,197,0.0,0.0,91,0.00,,,0.00,VWS V13.01,2013-01-09 08:25:00,
2013-01-09 02:26:00,36.0,33.6,29.44,SSW,197,0.0,0.0,91,0.00,,,0.00,VWS V13.01,2013-01-09 08:26:00,
2013-01-09 02:27:00,36.0,33.6,29.44,SSW,197,0.0,0.0,91,0.00,,,0.00,VWS V13.01,2013-01-09 08:27:00,
2013-01-09 02:28:00,35.8,33.4,29.44,SSW,197,0.0,0.0,91,0.00,,,0.00,VWS V13.01,2013-01-09 08:28:00,
2013-01-09 02:29:00,35.8,33.4,29.44,SSW,197,0.0,0.0,91,0.00,,,0.00,VWS V13.01,2013-01-09 08:29:00,
2013-01-09 02:30:00,35.8,33.4,29.44,SSW,197,0.0,0.0,91,0.00,,,0.00,VWS V13.01,2013-01-09 08:30:00,
2013-01-09 02:31:00,35.8,33.4,29.44,SSW,197,0.0,0.0,91,0.00,,,0.00,VWS V13.01,2013-01-09 08:31:00,
2013-01-09 02:32:00,35.6,33.2,29.44,SSW,197,0.0,0.0,91,0.00,,,0.00,VWS V13.01,2013-01-09 08:32:00,
2013-01-09 02:33:00,35.6,33.2,29.44,SSW,197,0.0,0.0,91,0.00,,,0.00,VWS V13.01,2013-01-09 08:33:00,
2013-01-09 02:34:00,35.6,33.2,29.44,SSW,197,0.0,0.0,91,0.00,,,0.00,VWS V13.01,2013-01-09 08:34:00,
2013-01-09 02:35:00,35.6,35.6,29.44,SSW,197,0.0,0.0,100,0.00,,,0.00,VWS V13.01,2013-01-09 08:35:00,
2013-01-09 02:36:00,35.6,35.6,29.44,SSW,197,0.0,0.0,100,0.00,,,0.00,VWS V13.01,2013-01-09 08:36:00,
2013-01-09 02:37:00,35.4,35.4,29.44,SSW,197,0.0,0.0,100,0.00,,,0.00,VWS V13.01,2013-01-09 08:37:00,
2013-01-09 02:38:00,35.4,35.4,29.44,SSW,197,0.0,0.0,100,0.00,,,0.00,VWS V13.01,2013-01-09 08:38:00,
2013-01-09 02:39:00,35.4,35.4,29.44,SSW,197,0.0,0.0,100,0.00,,,0.00,VWS V13.01,2013-01-09 08:39:00,
2013-01-09 02:40:00,35.2,35.2,29.44,SSW,197,0.0,0.0,100,0.00,,,0.00,VWS V13.01,2013-01-09 08:40:00,
2013-01-09 02:41:00,35.4,35.4,29.44,SSW,197,0.0,0.0,100,0.00,,,0.00,VWS V13.01,2013-01-09 08:41:00,
2013-01-09 02:42:00,35.4,35.4,29.44,SSW,197,0.0,0.0,100,0.00,,,0.00,VWS V13.01,2013-01-09 08:42:00,
2013-01-09 02:43:00,35.4,35.4,29.44,SSW,197,0.0,0.0,100,0.00,,,0.00,VWS V13.01,2013-01-09 08:43:00,
2013-01-09 02:44:00,35.2,35.2,29.44,SSW,197,0.0,0.0,100,0.00,,,0.00,VWS V13.01,2013-01-09 08:44:00,
2013-01-09 02:45:00,35.2,35.2,29.44,SSW,197,0.0,0.0,100,0.00,,,0.00,VWS V13.01,2013-01-09 08:45:00,
2013-01-09 02:46:00,35.1,35.1,29.44,SSW,197,0.0,0.0,100,0.00,,,0.00,VWS V13.01,2013-01-09 08:46:00,
2013-01-09 02:47:00,35.1,35.1,29.44,SSW,197,0.0,0.0,100,0.00,,,0.00,VWS V13.01,2013-01-09 08:47:00,
2013-01-09 02:48:00,35.1,35.1,29.44,SSW,197,0.0,0.0,100,0.00,,,0.00,VWS V13.01,2013-01-09 08:48:00,
2013-01-09 02:49:00,35.1,35.1,29.44,SSW,197,0.0,0.0,100,0.00,,,0.00,VWS V13.01,2013-01-09 08:49:00,
2013-01-09 02:50:00,34.9,34.9,29.44,SSW,197,0.0,0.0,100,0.00,,,0.00,VWS V13.01,2013-01-09 08:50:00,
2013-01-09 02:51:00,34.9,34.9,29.44,SSW,197,0.0,0.0,100,0.00,,,0.00,VWS V13.01,2013-01-09 08:51:00,
2013-01-09 02:52:00,34.9,34.9,29.44,SSW,197,0.0,0.0,100,0.00,,,0.00,VWS V13.01,2013-01-09 08:52:00,
2013-01-09 02:53:00,34.9,34.9,29.44,SSW,197,0.0,0.0,100,0.00,,,0.00,VWS V13.01,2013-01-09 08:53:00,
2013-01-09 02:54:00,34.9,34.9,29.44,SSW,197,0.0,0.0,100,0.00,,,0.00,VWS V13.01,2013-01-09 08:54:00,
2013-01-09 02:55:00,34.9,34.9,29.44,SSW,197,0.0,0.0,100,0.00,,,0.00,VWS V13.01,2013-01-09 08:55:00,
2013-01-09 02:56:00,34.7,34.7,29.44,SSW,197,0.0,0.0,100,0.00,,,0.00,VWS V13.01,2013-01-09 08:56:00,
2013-01-09 02:57:00,34.7,34.7,29.44,SSW,197,0.0,0.0,100,0.00,,,0.00,VWS V13.01,2013-01-09 08:57:00,
2013-01-09 02:58:00,34.7,34.7,29.44,SSW,197,0.0,0.0,100,0.00,,,0.00,VWS V13.01,2013-01-09 08:58:00,
2013-01-09 02:59:00,34.9,34.9,29.44,SSW,197,0.0,0.0,100,0.00,,,0.00,VWS V13.01,2013-01-09 08:59:00,
2013-01-09 03:00:00,34.9,34.9,29.44,SSW,197,0.0,0.0,100,0.00,,,0.00,VWS V13.01,2013-01-09 09:00:00,
2013-01-09 03:01:00,34.9,34.9,29.44,SSW,197,0.0,0.0,100,0.00,,,0.00,VWS V13.01,2013-01-09 09:01:00,
2013-01-09 03:02:00,34.9,34.9,29.44,SSW,197,0.0,0.0,100,0.00,,,0.00,VWS V13.01,2013-01-09 09:02:00,
2013-01-09 03:03:00,34.9,34.9,29.44,SSW,197,0.0,0.0,100,0.00,,,0.00,VWS V13.01,2013-01-09 09:03:00,
2013-01-09 03:04:00,35.1,35.1,29.44,SSW,197,0.0,0.0,100,0.00,,,0.00,VWS V13.01,2013-01-09 09:04:00,
2013-01-09 03:05:00,35.1,35.1,29.44,SSW,197,0.0,0.0,100,0.00,,,0.00,VWS V13.01,2013-01-09 09:05:00,
2013-01-09 03:06:00,35.1,35.1,29.44,SSW,197,0.0,0.0,100,0.00,,,0.00,VWS V13.01,2013-01-09 09:06:00,
2013-01-09 03:07:00,35.1,35.1,29.44,SSW,197,0.0,0.0,100,0.00,,,0.00,VWS V13.01,2013-01-09 09:07:00,
2013-01-09 03:08:00,35.1,35.1,29.44,SSW,197,0.0,0.0,100,0.00,,,0.00,VWS V13.01,2013-01-09 09:08:00,
2013-01-09 03:09:00,35.1,35.1,29.44,SSW,197,0.0,0.0,100,0.00,,,0.00,VWS V13.01,2013-01-09 09:09:00,
2013-01-09 03:10:00,35.1,35.1,29.44,SSW,197,0.0,0.0,100,0.00,,,0.00,VWS V13.01,2013-01-09 09:10:00,
2013-01-09 03:11:00,35.1,35.1,29.44,SSW,197,0.0,0.0,100,0.00,,,0.00,VWS V13.01,2013-01-09 09:11:00,
2013-01-09 03:12:00,35.1,35.1,29.44,SSW,197,0.0,0.0,100,0.00,,,0.00,VWS V13.01,2013-01-09 09:12:00,
2013-01-09 03:13:00,35.1,35.1,29.44,SSW,197,0.0,0.0,100,0.00,,,0.00,VWS V13.01,2013-01-09 09:13:00,
2013-01-09 03:15:00,35.1,35.1,29.44,SSW,197,0.0,0.0,100,0.00,,,0.00,VWS V13.01,2013-01-09 09:15:00,
2013-01-09 03:16:00,35.1,35.1,29.44,SSW,197,0.0,0.0,100,0.00,,,0.00,VWS V13.01,2013-01-09 09:16:00,
2013-01-09 03:17:00,35.1,35.1,29.44,SSW,197,0.0,0.0,100,0.00,,,0.00,VWS V13.01,2013-01-09 09:17:00,
2013-01-09 03:18:00,35.4,35.4,29.44,SSW,197,0.0,0.0,100,0.00,,,0.00,VWS V13.01,2013-01-09 09:18:00,
2013-01-09 03:20:00,35.2,35.2,29.44,SSW,197,0.0,0.0,100,0.00,,,0.00,VWS V13.01,2013-01-09 09:20:00,
2013-01-09 03:22:00,35.2,35.2,29.44,SSW,197,0.0,0.0,100,0.00,,,0.00,VWS V13.01,2013-01-09 09:22:00,
2013-01-09 03:23:00,35.4,35.4,29.44,SSW,197,0.0,0.0,100,0.00,,,0.00,VWS V13.01,2013-01-09 09:23:00,
2013-01-09 03:26:00,35.4,35.4,29.44,SSW,197,0.0,0.0,100,0.00,,,0.00,VWS V13.01,2013-01-09 09:26:00,
2013-01-09 03:27:00,35.4,35.4,29.44,SSW,197,0.0,0.0,100,0.00,,,0.00,VWS V13.01,2013-01-09 09:27:00,
2013-01-09 03:29:00,35.4,35.4,29.44,SSW,197,0.0,0.0,100,0.00,,,0.00,VWS V13.01,2013-01-09 09:29:00,